contact:dominique.lefevre@mio.osupytheas.fr, maurice.libes@osupytheas.fr, didier.mallarino@osupytheas.fr
Project:EMSO http://www.emso-fr.org/EMSO-France
Depth: 2436.0 m
Title:EMSO Ligure Ouest : Data MII capteur MICROCAT
DateTime_Computer,Latitude,Longitude,Temperature,Conductivity,Pressure,DateTime_Instrument
DateTime_Computer,Latitude,Longitude,degC,S m-1,dbar,DateTime_Instrument
2023-12-18T00:02:49Z,42.805,6.029,13.3061,4.60140,2470.833,2023-12-18T02:05:19Z
2023-12-18T00:05:52Z,42.805,6.029,13.3064,4.60127,2470.847,2023-12-18T02:08:22Z
2023-12-18T00:08:55Z,42.805,6.029,13.3073,4.60135,2470.833,2023-12-18T02:11:25Z
2023-12-18T00:11:58Z,42.805,6.029,13.3074,4.60144,2470.847,2023-12-18T02:14:28Z
2023-12-18T00:15:01Z,42.805,6.029,13.3072,4.60152,2470.871,2023-12-18T02:17:31Z
2023-12-18T00:18:04Z,42.805,6.029,13.3079,4.60134,2470.824,2023-12-18T02:20:34Z
2023-12-18T00:21:07Z,42.805,6.029,13.3077,4.60147,2470.871,2023-12-18T02:23:37Z
2023-12-18T00:24:10Z,42.805,6.029,13.3072,4.60146,2470.81,2023-12-18T02:26:40Z
2023-12-18T00:27:13Z,42.805,6.029,13.3079,4.60142,2470.81,2023-12-18T02:29:43Z
2023-12-18T00:30:16Z,42.805,6.029,13.3068,4.60138,2470.81,2023-12-18T02:32:46Z
2023-12-18T00:33:19Z,42.805,6.029,13.3069,4.60151,2470.833,2023-12-18T02:35:50Z
2023-12-18T00:36:23Z,42.805,6.029,13.3070,4.60129,2470.833,2023-12-18T02:38:53Z
2023-12-18T00:39:26Z,42.805,6.029,13.3069,4.60147,2470.847,2023-12-18T02:41:56Z
2023-12-18T00:42:29Z,42.805,6.029,13.3070,4.60141,2470.824,2023-12-18T02:44:59Z
2023-12-18T00:45:32Z,42.805,6.029,13.3067,4.60146,2470.824,2023-12-18T02:48:02Z
2023-12-18T00:48:35Z,42.805,6.029,13.3076,4.60140,2470.81,2023-12-18T02:51:05Z
2023-12-18T00:51:38Z,42.805,6.029,13.3063,4.60152,2470.833,2023-12-18T02:54:08Z
2023-12-18T00:54:41Z,42.805,6.029,13.3069,4.60136,2470.833,2023-12-18T02:57:11Z
2023-12-18T00:57:44Z,42.805,6.029,13.3084,4.60140,2470.833,2023-12-18T03:00:14Z
2023-12-18T01:00:47Z,42.805,6.029,13.3089,4.60140,2470.833,2023-12-18T03:03:17Z
2023-12-18T01:03:50Z,42.805,6.029,13.3093,4.60157,2470.81,2023-12-18T03:06:20Z
2023-12-18T01:06:53Z,42.805,6.029,13.3069,4.60165,2470.81,2023-12-18T03:09:23Z
2023-12-18T01:09:56Z,42.805,6.029,13.3118,4.60175,2470.787,2023-12-18T03:12:26Z
2023-12-18T01:13:00Z,42.805,6.029,13.3089,4.60147,2470.833,2023-12-18T03:15:30Z
2023-12-18T01:16:03Z,42.805,6.029,13.3092,4.60150,2470.81,2023-12-18T03:18:33Z
2023-12-18T01:19:06Z,42.805,6.029,13.3072,4.60174,2470.787,2023-12-18T03:21:36Z
2023-12-18T01:22:09Z,42.805,6.029,13.3069,4.60158,2470.824,2023-12-18T03:24:39Z
2023-12-18T01:25:12Z,42.805,6.029,13.3096,4.60168,2470.847,2023-12-18T03:27:42Z
2023-12-18T01:28:15Z,42.805,6.029,13.3060,4.60135,2470.81,2023-12-18T03:30:45Z
2023-12-18T01:31:18Z,42.805,6.029,13.3104,4.60136,2470.81,2023-12-18T03:33:48Z
2023-12-18T01:34:21Z,42.805,6.029,13.3087,4.60130,2470.833,2023-12-18T03:36:51Z
2023-12-18T01:37:24Z,42.805,6.029,13.3061,4.60146,2470.8,2023-12-18T03:39:54Z
2023-12-18T01:40:27Z,42.805,6.029,13.3082,4.60147,2470.8,2023-12-18T03:42:57Z
2023-12-18T01:43:30Z,42.805,6.029,13.3085,4.60158,2470.833,2023-12-18T03:46:00Z
2023-12-18T01:46:33Z,42.805,6.029,13.3094,4.60137,2470.8,2023-12-18T03:49:03Z
2023-12-18T01:49:37Z,42.805,6.029,13.3097,4.60155,2470.787,2023-12-18T03:52:07Z
2023-12-18T01:52:40Z,42.805,6.029,13.3085,4.60152,2470.81,2023-12-18T03:55:10Z
2023-12-18T01:55:43Z,42.805,6.029,13.3088,4.60150,2470.81,2023-12-18T03:58:13Z
2023-12-18T01:58:46Z,42.805,6.029,13.3083,4.60160,2470.824,2023-12-18T04:01:16Z
2023-12-18T02:01:49Z,42.805,6.029,13.3072,4.60180,2470.833,2023-12-18T04:04:19Z
2023-12-18T02:04:52Z,42.805,6.029,13.3083,4.60160,2470.833,2023-12-18T04:07:22Z
2023-12-18T02:07:55Z,42.805,6.029,13.3098,4.60176,2470.847,2023-12-18T04:10:25Z
2023-12-18T02:10:58Z,42.805,6.029,13.3115,4.60188,2470.81,2023-12-18T04:13:28Z
2023-12-18T02:14:01Z,42.805,6.029,13.3087,4.60169,2470.833,2023-12-18T04:16:31Z
2023-12-18T02:17:04Z,42.805,6.029,13.3082,4.60170,2470.787,2023-12-18T04:19:34Z
2023-12-18T02:20:07Z,42.805,6.029,13.3081,4.60155,2470.81,2023-12-18T04:22:37Z
2023-12-18T02:23:10Z,42.805,6.029,13.3077,4.60168,2470.787,2023-12-18T04:25:40Z
2023-12-18T02:26:14Z,42.805,6.029,13.3075,4.60153,2470.787,2023-12-18T04:28:44Z
2023-12-18T02:29:17Z,42.805,6.029,13.3077,4.60167,2470.763,2023-12-18T04:31:47Z
2023-12-18T02:32:20Z,42.805,6.029,13.3065,4.60182,2470.796,2023-12-18T04:34:50Z
2023-12-18T02:35:23Z,42.805,6.029,13.3079,4.60185,2470.763,2023-12-18T04:37:53Z
2023-12-18T02:38:26Z,42.805,6.029,13.3099,4.60168,2470.824,2023-12-18T04:40:56Z
2023-12-18T02:41:29Z,42.805,6.029,13.3108,4.60178,2470.74,2023-12-18T04:43:59Z
2023-12-18T02:44:32Z,42.805,6.029,13.3093,4.60152,2470.787,2023-12-18T04:47:02Z
2023-12-18T02:47:35Z,42.805,6.029,13.3070,4.60167,2470.847,2023-12-18T04:50:05Z
2023-12-18T02:50:38Z,42.805,6.029,13.3126,4.60194,2470.81,2023-12-18T04:53:08Z
2023-12-18T02:53:41Z,42.805,6.029,13.3118,4.60152,2470.81,2023-12-18T04:56:11Z
2023-12-18T02:56:44Z,42.805,6.029,13.3106,4.60146,2470.787,2023-12-18T04:59:14Z
2023-12-18T02:59:47Z,42.805,6.029,13.3063,4.60165,2470.787,2023-12-18T05:02:17Z
2023-12-18T03:02:50Z,42.805,6.029,13.3079,4.60198,2470.787,2023-12-18T05:05:21Z
2023-12-18T03:05:54Z,42.805,6.029,13.3090,4.60221,2470.777,2023-12-18T05:08:24Z
2023-12-18T03:08:57Z,42.805,6.029,13.3058,4.60163,2470.763,2023-12-18T05:11:27Z
2023-12-18T03:12:00Z,42.805,6.029,13.3081,4.60236,2470.824,2023-12-18T05:14:30Z
2023-12-18T03:15:03Z,42.805,6.029,13.3106,4.60195,2470.787,2023-12-18T05:17:33Z
2023-12-18T03:18:06Z,42.805,6.029,13.3060,4.60182,2470.74,2023-12-18T05:20:36Z
2023-12-18T03:21:09Z,42.805,6.029,13.3085,4.60222,2470.787,2023-12-18T05:23:39Z
2023-12-18T03:24:12Z,42.805,6.029,13.3096,4.60179,2470.787,2023-12-18T05:26:42Z
2023-12-18T03:27:15Z,42.805,6.029,13.3088,4.60189,2470.824,2023-12-18T05:29:45Z
2023-12-18T03:30:18Z,42.805,6.029,13.3064,4.60180,2470.763,2023-12-18T05:32:48Z
2023-12-18T03:33:21Z,42.805,6.029,13.3074,4.60163,2470.787,2023-12-18T05:35:51Z
2023-12-18T03:36:24Z,42.805,6.029,13.3097,4.60220,2470.74,2023-12-18T05:38:54Z
2023-12-18T03:39:28Z,42.805,6.029,13.3077,4.60184,2470.777,2023-12-18T05:41:58Z
2023-12-18T03:42:31Z,42.805,6.029,13.3086,4.60173,2470.74,2023-12-18T05:45:01Z
2023-12-18T03:45:34Z,42.805,6.029,13.3079,4.60184,2470.763,2023-12-18T05:48:04Z
2023-12-18T03:48:37Z,42.805,6.029,13.3065,4.60185,2470.787,2023-12-18T05:51:07Z
2023-12-18T03:51:40Z,42.805,6.029,13.3092,4.60185,2470.763,2023-12-18T05:54:10Z
2023-12-18T03:54:43Z,42.805,6.029,13.3078,4.60215,2470.763,2023-12-18T05:57:13Z
2023-12-18T03:57:46Z,42.805,6.029,13.3090,4.60183,2470.754,2023-12-18T06:00:16Z
2023-12-18T04:00:49Z,42.805,6.029,13.3075,4.60186,2470.777,2023-12-18T06:03:19Z
2023-12-18T04:03:52Z,42.805,6.029,13.3088,4.60169,2470.777,2023-12-18T06:06:22Z
2023-12-18T04:06:55Z,42.805,6.029,13.3058,4.60185,2470.74,2023-12-18T06:09:25Z
2023-12-18T04:09:58Z,42.805,6.029,13.3072,4.60210,2470.763,2023-12-18T06:12:28Z
2023-12-18T04:13:01Z,42.805,6.029,13.3065,4.60178,2470.777,2023-12-18T06:15:31Z
2023-12-18T04:16:05Z,42.805,6.029,13.3072,4.60169,2470.74,2023-12-18T06:18:35Z
2023-12-18T04:19:08Z,42.805,6.029,13.3082,4.60188,2470.8,2023-12-18T06:21:38Z
2023-12-18T04:22:11Z,42.805,6.029,13.3079,4.60195,2470.787,2023-12-18T06:24:41Z
2023-12-18T04:25:14Z,42.805,6.029,13.3084,4.60200,2470.763,2023-12-18T06:27:44Z
2023-12-18T04:28:17Z,42.805,6.029,13.3087,4.60176,2470.74,2023-12-18T06:30:47Z
2023-12-18T04:31:20Z,42.805,6.029,13.3085,4.60190,2470.763,2023-12-18T06:33:50Z
2023-12-18T04:34:23Z,42.805,6.029,13.3069,4.60153,2470.763,2023-12-18T06:36:53Z
2023-12-18T04:37:26Z,42.805,6.029,13.3073,4.60184,2470.74,2023-12-18T06:39:56Z
2023-12-18T04:40:29Z,42.805,6.029,13.3076,4.60208,2470.8,2023-12-18T06:42:59Z
2023-12-18T04:43:32Z,42.805,6.029,13.3054,4.60198,2470.777,2023-12-18T06:46:02Z
2023-12-18T04:46:35Z,42.805,6.029,13.3085,4.60170,2470.74,2023-12-18T06:49:05Z
2023-12-18T04:49:38Z,42.805,6.029,13.3075,4.60188,2470.74,2023-12-18T06:52:08Z
2023-12-18T04:52:42Z,42.805,6.029,13.3085,4.60208,2470.763,2023-12-18T06:55:12Z
2023-12-18T04:55:45Z,42.805,6.029,13.3103,4.60200,2470.717,2023-12-18T06:58:15Z
2023-12-18T04:58:48Z,42.805,6.029,13.3060,4.60208,2470.74,2023-12-18T07:01:18Z
2023-12-18T05:01:51Z,42.805,6.029,13.3066,4.60193,2470.763,2023-12-18T07:04:21Z
2023-12-18T05:04:54Z,42.805,6.029,13.3074,4.60198,2470.763,2023-12-18T07:07:24Z
2023-12-18T05:07:57Z,42.805,6.029,13.3063,4.60210,2470.763,2023-12-18T07:10:27Z
2023-12-18T05:11:00Z,42.805,6.029,13.3081,4.60192,2470.74,2023-12-18T07:13:30Z
2023-12-18T05:14:03Z,42.805,6.029,13.3091,4.60187,2470.777,2023-12-18T07:16:33Z
2023-12-18T05:17:06Z,42.805,6.029,13.3081,4.60164,2470.8,2023-12-18T07:19:36Z
2023-12-18T05:20:09Z,42.805,6.029,13.3055,4.60179,2470.787,2023-12-18T07:22:39Z
2023-12-18T05:23:12Z,42.805,6.029,13.3049,4.60161,2470.763,2023-12-18T07:25:42Z
2023-12-18T05:26:15Z,42.805,6.029,13.3061,4.60191,2470.74,2023-12-18T07:28:45Z
2023-12-18T05:29:19Z,42.805,6.029,13.3062,4.60179,2470.777,2023-12-18T07:31:49Z
2023-12-18T05:32:22Z,42.805,6.029,13.3066,4.60164,2470.74,2023-12-18T07:34:52Z
2023-12-18T05:35:25Z,42.805,6.029,13.3074,4.60160,2470.74,2023-12-18T07:37:55Z
2023-12-18T05:38:28Z,42.805,6.029,13.3058,4.60180,2470.763,2023-12-18T07:40:58Z
2023-12-18T05:41:31Z,42.805,6.029,13.3061,4.60180,2470.754,2023-12-18T07:44:01Z
2023-12-18T05:44:34Z,42.805,6.029,13.3069,4.60190,2470.777,2023-12-18T07:47:04Z
2023-12-18T05:47:37Z,42.805,6.029,13.3062,4.60180,2470.717,2023-12-18T07:50:07Z
2023-12-18T05:50:40Z,42.805,6.029,13.3073,4.60173,2470.754,2023-12-18T07:53:10Z
2023-12-18T05:53:43Z,42.805,6.029,13.3064,4.60135,2470.74,2023-12-18T07:56:13Z
2023-12-18T05:56:46Z,42.805,6.029,13.3073,4.60168,2470.777,2023-12-18T07:59:16Z
2023-12-18T05:59:49Z,42.805,6.029,13.3077,4.60186,2470.74,2023-12-18T08:02:19Z
2023-12-18T06:02:52Z,42.805,6.029,13.3076,4.60186,2470.763,2023-12-18T08:05:22Z
2023-12-18T06:05:56Z,42.805,6.029,13.3065,4.60184,2470.763,2023-12-18T08:08:26Z
2023-12-18T06:08:59Z,42.805,6.029,13.3084,4.60198,2470.777,2023-12-18T08:11:29Z
2023-12-18T06:12:02Z,42.805,6.029,13.3049,4.60192,2470.763,2023-12-18T08:14:32Z
2023-12-18T06:15:05Z,42.805,6.029,13.3070,4.60192,2470.787,2023-12-18T08:17:35Z
2023-12-18T06:18:08Z,42.805,6.029,13.3065,4.60195,2470.787,2023-12-18T08:20:38Z
2023-12-18T06:21:11Z,42.805,6.029,13.3069,4.60191,2470.763,2023-12-18T08:23:41Z
2023-12-18T06:24:14Z,42.805,6.029,13.3064,4.60185,2470.74,2023-12-18T08:26:44Z
2023-12-18T06:27:17Z,42.805,6.029,13.3070,4.60200,2470.824,2023-12-18T08:29:47Z
2023-12-18T06:30:20Z,42.805,6.029,13.3058,4.60185,2470.8,2023-12-18T08:32:50Z
2023-12-18T06:33:23Z,42.805,6.029,13.3069,4.60173,2470.787,2023-12-18T08:35:53Z
2023-12-18T06:36:26Z,42.805,6.029,13.3067,4.60187,2470.787,2023-12-18T08:38:56Z
2023-12-18T06:39:29Z,42.805,6.029,13.3066,4.60175,2470.8,2023-12-18T08:41:59Z
2023-12-18T06:42:33Z,42.805,6.029,13.3067,4.60191,2470.824,2023-12-18T08:45:03Z
2023-12-18T06:45:36Z,42.805,6.029,13.3059,4.60158,2470.763,2023-12-18T08:48:06Z
2023-12-18T06:48:39Z,42.805,6.029,13.3070,4.60162,2470.787,2023-12-18T08:51:09Z
2023-12-18T06:51:42Z,42.805,6.029,13.3054,4.60178,2470.824,2023-12-18T08:54:12Z
2023-12-18T06:54:45Z,42.805,6.029,13.3089,4.60174,2470.81,2023-12-18T08:57:15Z
2023-12-18T06:57:48Z,42.805,6.029,13.3076,4.60186,2470.787,2023-12-18T09:00:18Z
2023-12-18T07:00:51Z,42.805,6.029,13.3048,4.60183,2470.787,2023-12-18T09:03:21Z
2023-12-18T07:03:54Z,42.805,6.029,13.3063,4.60183,2470.8,2023-12-18T09:06:24Z
2023-12-18T07:06:57Z,42.805,6.029,13.3059,4.60213,2470.787,2023-12-18T09:09:27Z
2023-12-18T07:10:00Z,42.805,6.029,13.3099,4.60205,2470.833,2023-12-18T09:12:30Z
2023-12-18T07:13:03Z,42.805,6.029,13.3076,4.60145,2470.8,2023-12-18T09:15:33Z
2023-12-18T07:16:06Z,42.805,6.029,13.3070,4.60186,2470.833,2023-12-18T09:18:36Z
2023-12-18T07:19:09Z,42.805,6.029,13.3068,4.60180,2470.824,2023-12-18T09:21:40Z
2023-12-18T07:22:13Z,42.805,6.029,13.3081,4.60158,2470.847,2023-12-18T09:24:43Z
2023-12-18T07:25:16Z,42.805,6.029,13.3071,4.60192,2470.787,2023-12-18T09:27:46Z
2023-12-18T07:28:19Z,42.805,6.029,13.3073,4.60196,2470.81,2023-12-18T09:30:49Z
2023-12-18T07:31:22Z,42.805,6.029,13.3074,4.60208,2470.787,2023-12-18T09:33:52Z
2023-12-18T07:34:25Z,42.805,6.029,13.3071,4.60185,2470.81,2023-12-18T09:36:55Z
2023-12-18T07:37:28Z,42.805,6.029,13.3068,4.60199,2470.833,2023-12-18T09:39:58Z
2023-12-18T07:40:31Z,42.805,6.029,13.3078,4.60180,2470.833,2023-12-18T09:43:01Z
2023-12-18T07:43:34Z,42.805,6.029,13.3067,4.60178,2470.857,2023-12-18T09:46:04Z
2023-12-18T07:46:37Z,42.805,6.029,13.3073,4.60160,2470.81,2023-12-18T09:49:07Z
2023-12-18T07:49:40Z,42.805,6.029,13.3073,4.60151,2470.833,2023-12-18T09:52:10Z
2023-12-18T07:52:43Z,42.805,6.029,13.3076,4.60181,2470.857,2023-12-18T09:55:13Z
2023-12-18T07:55:47Z,42.805,6.029,13.3082,4.60178,2470.833,2023-12-18T09:58:17Z
2023-12-18T07:58:50Z,42.805,6.029,13.3082,4.60188,2470.847,2023-12-18T10:01:20Z
2023-12-18T08:01:53Z,42.805,6.029,13.3069,4.60173,2470.857,2023-12-18T10:04:23Z
2023-12-18T08:04:56Z,42.805,6.029,13.3074,4.60175,2470.857,2023-12-18T10:07:26Z
2023-12-18T08:07:59Z,42.805,6.029,13.3083,4.60173,2470.894,2023-12-18T10:10:29Z
2023-12-18T08:11:02Z,42.805,6.029,13.3068,4.60135,2470.857,2023-12-18T10:13:32Z
2023-12-18T08:14:05Z,42.805,6.029,13.3052,4.60156,2470.857,2023-12-18T10:16:35Z
2023-12-18T08:17:08Z,42.805,6.029,13.3063,4.60164,2470.88,2023-12-18T10:19:38Z
2023-12-18T08:20:11Z,42.805,6.029,13.3072,4.60165,2470.88,2023-12-18T10:22:41Z
2023-12-18T08:23:14Z,42.805,6.029,13.3054,4.60202,2470.894,2023-12-18T10:25:44Z
2023-12-18T08:26:17Z,42.805,6.029,13.3050,4.60167,2470.857,2023-12-18T10:28:47Z
2023-12-18T08:29:20Z,42.805,6.029,13.3078,4.60178,2470.894,2023-12-18T10:31:51Z
2023-12-18T08:32:24Z,42.805,6.029,13.3074,4.60198,2470.88,2023-12-18T10:34:54Z
2023-12-18T08:35:27Z,42.805,6.029,13.3066,4.60165,2470.904,2023-12-18T10:37:57Z
2023-12-18T08:38:30Z,42.805,6.029,13.3089,4.60150,2470.904,2023-12-18T10:41:00Z
2023-12-18T08:41:33Z,42.805,6.029,13.3085,4.60147,2470.917,2023-12-18T10:44:03Z
2023-12-18T08:44:36Z,42.805,6.029,13.3079,4.60164,2470.917,2023-12-18T10:47:06Z
2023-12-18T08:47:39Z,42.805,6.029,13.3067,4.60176,2470.927,2023-12-18T10:50:09Z
2023-12-18T08:50:42Z,42.805,6.029,13.3078,4.60143,2470.904,2023-12-18T10:53:12Z
2023-12-18T08:53:45Z,42.805,6.029,13.3084,4.60173,2470.94,2023-12-18T10:56:15Z
2023-12-18T08:56:48Z,42.805,6.029,13.3063,4.60168,2470.866,2023-12-18T10:59:18Z
2023-12-18T08:59:51Z,42.805,6.029,13.3068,4.60163,2470.927,2023-12-18T11:02:21Z
2023-12-18T09:02:54Z,42.805,6.029,13.3073,4.60159,2470.904,2023-12-18T11:05:25Z
2023-12-18T09:05:58Z,42.805,6.029,13.3057,4.60153,2470.94,2023-12-18T11:08:28Z
2023-12-18T09:09:01Z,42.805,6.029,13.3064,4.60167,2470.927,2023-12-18T11:11:31Z
2023-12-18T09:12:04Z,42.805,6.029,13.3056,4.60162,2470.95,2023-12-18T11:14:34Z
2023-12-18T09:15:07Z,42.805,6.029,13.3071,4.60172,2470.964,2023-12-18T11:17:37Z
2023-12-18T09:18:10Z,42.805,6.029,13.3057,4.60169,2470.913,2023-12-18T11:20:40Z
2023-12-18T09:21:13Z,42.805,6.029,13.3096,4.60151,2470.927,2023-12-18T11:23:43Z
2023-12-18T09:24:16Z,42.805,6.029,13.3070,4.60170,2470.927,2023-12-18T11:26:46Z
2023-12-18T09:27:19Z,42.805,6.029,13.3073,4.60175,2470.927,2023-12-18T11:29:49Z
2023-12-18T09:30:23Z,42.805,6.029,13.3063,4.60144,2470.964,2023-12-18T11:32:53Z
2023-12-18T09:33:26Z,42.805,6.029,13.3064,4.60130,2470.964,2023-12-18T11:35:56Z
2023-12-18T09:36:30Z,42.805,6.029,13.3066,4.60127,2470.964,2023-12-18T11:39:00Z
2023-12-18T09:39:33Z,42.805,6.029,13.3059,4.60140,2470.964,2023-12-18T11:42:03Z
2023-12-18T09:42:36Z,42.805,6.029,13.3051,4.60165,2470.94,2023-12-18T11:45:06Z
2023-12-18T09:45:39Z,42.805,6.029,13.3067,4.60153,2470.964,2023-12-18T11:48:09Z
2023-12-18T09:48:42Z,42.805,6.029,13.3060,4.60162,2470.95,2023-12-18T11:51:12Z
2023-12-18T09:51:45Z,42.805,6.029,13.3069,4.60131,2470.997,2023-12-18T11:54:15Z
2023-12-18T09:54:48Z,42.805,6.029,13.3060,4.60141,2470.987,2023-12-18T11:57:18Z
2023-12-18T09:57:51Z,42.805,6.029,13.3051,4.60157,2470.997,2023-12-18T12:00:21Z
2023-12-18T10:00:54Z,42.805,6.029,13.3070,4.60166,2470.987,2023-12-18T12:03:24Z
2023-12-18T10:03:57Z,42.805,6.029,13.3056,4.60156,2470.95,2023-12-18T12:06:27Z
2023-12-18T10:07:00Z,42.805,6.029,13.3075,4.60172,2470.987,2023-12-18T12:09:30Z
2023-12-18T10:10:03Z,42.805,6.029,13.3074,4.60181,2470.973,2023-12-18T12:12:34Z
2023-12-18T10:13:07Z,42.805,6.029,13.3071,4.60164,2470.973,2023-12-18T12:15:37Z
2023-12-18T10:16:10Z,42.805,6.029,13.3084,4.60208,2470.973,2023-12-18T12:18:40Z
2023-12-18T10:19:13Z,42.805,6.029,13.3093,4.60147,2470.997,2023-12-18T12:21:43Z
2023-12-18T10:22:16Z,42.805,6.029,13.3067,4.60162,2470.927,2023-12-18T12:24:46Z
2023-12-18T10:25:19Z,42.805,6.029,13.3055,4.60156,2470.973,2023-12-18T12:27:49Z
2023-12-18T10:28:22Z,42.805,6.029,13.3057,4.60164,2470.973,2023-12-18T12:30:52Z
2023-12-18T10:31:25Z,42.805,6.029,13.3078,4.60164,2470.987,2023-12-18T12:33:55Z
2023-12-18T10:34:28Z,42.805,6.029,13.3082,4.60180,2470.973,2023-12-18T12:36:58Z
2023-12-18T10:37:31Z,42.805,6.029,13.3083,4.60128,2470.987,2023-12-18T12:40:01Z
2023-12-18T10:40:34Z,42.805,6.029,13.3076,4.60128,2470.95,2023-12-18T12:43:04Z
2023-12-18T10:43:37Z,42.805,6.029,13.3067,4.60232,2470.95,2023-12-18T12:46:08Z
2023-12-18T10:46:41Z,42.805,6.029,13.3068,4.60171,2470.987,2023-12-18T12:49:11Z
2023-12-18T10:49:44Z,42.805,6.029,13.3055,4.60169,2470.987,2023-12-18T12:52:14Z
2023-12-18T10:52:47Z,42.805,6.029,13.3068,4.60185,2471.01,2023-12-18T12:55:17Z
2023-12-18T10:55:50Z,42.805,6.029,13.3072,4.60154,2470.987,2023-12-18T12:58:20Z
2023-12-18T10:58:53Z,42.805,6.029,13.3084,4.60164,2471.034,2023-12-18T13:01:23Z
2023-12-18T11:01:56Z,42.805,6.029,13.3082,4.60145,2470.973,2023-12-18T13:04:26Z
2023-12-18T11:04:59Z,42.805,6.029,13.3079,4.60159,2471.01,2023-12-18T13:07:29Z
2023-12-18T11:08:02Z,42.805,6.029,13.3082,4.60157,2471.01,2023-12-18T13:10:32Z
2023-12-18T11:11:05Z,42.805,6.029,13.3066,4.60126,2470.997,2023-12-18T13:13:35Z
2023-12-18T11:14:08Z,42.805,6.029,13.3058,4.60148,2470.964,2023-12-18T13:16:38Z
2023-12-18T11:17:11Z,42.805,6.029,13.3049,4.60129,2470.95,2023-12-18T13:19:41Z
2023-12-18T11:20:15Z,42.805,6.029,13.3054,4.60148,2470.987,2023-12-18T13:22:45Z
2023-12-18T11:23:18Z,42.805,6.029,13.3064,4.60138,2470.997,2023-12-18T13:25:48Z
2023-12-18T11:26:21Z,42.805,6.029,13.3058,4.60135,2471.01,2023-12-18T13:28:51Z
2023-12-18T11:29:24Z,42.805,6.029,13.3058,4.60122,2470.973,2023-12-18T13:31:54Z
2023-12-18T11:32:27Z,42.805,6.029,13.3072,4.60139,2470.95,2023-12-18T13:34:57Z
2023-12-18T11:35:30Z,42.805,6.029,13.3039,4.60157,2470.973,2023-12-18T13:38:00Z
2023-12-18T11:38:33Z,42.805,6.029,13.3058,4.60157,2470.95,2023-12-18T13:41:03Z
2023-12-18T11:41:36Z,42.805,6.029,13.3059,4.60142,2470.973,2023-12-18T13:44:06Z
2023-12-18T11:44:39Z,42.805,6.029,13.3047,4.60143,2470.987,2023-12-18T13:47:09Z
2023-12-18T11:47:42Z,42.805,6.029,13.3058,4.60156,2470.95,2023-12-18T13:50:12Z
2023-12-18T11:50:45Z,42.805,6.029,13.3051,4.60146,2470.973,2023-12-18T13:53:15Z
2023-12-18T11:53:48Z,42.805,6.029,13.3069,4.60149,2470.95,2023-12-18T13:56:18Z
2023-12-18T11:56:52Z,42.805,6.029,13.3062,4.60132,2470.973,2023-12-18T13:59:22Z
2023-12-18T11:59:55Z,42.805,6.029,13.3044,4.60145,2470.964,2023-12-18T14:02:25Z
2023-12-18T12:02:58Z,42.805,6.029,13.3062,4.60125,2470.95,2023-12-18T14:05:28Z
2023-12-18T12:06:01Z,42.805,6.029,13.3064,4.60133,2470.959,2023-12-18T14:08:31Z
2023-12-18T12:09:04Z,42.805,6.029,13.3072,4.60137,2470.973,2023-12-18T14:11:34Z
2023-12-18T12:12:07Z,42.805,6.029,13.3072,4.60125,2470.959,2023-12-18T14:14:37Z
2023-12-18T12:15:10Z,42.805,6.029,13.3056,4.60125,2470.95,2023-12-18T14:17:40Z
2023-12-18T12:18:13Z,42.805,6.029,13.3041,4.60128,2470.959,2023-12-18T14:20:43Z
2023-12-18T12:21:16Z,42.805,6.029,13.3043,4.60128,2470.973,2023-12-18T14:23:46Z
2023-12-18T12:24:19Z,42.805,6.029,13.3058,4.60135,2470.95,2023-12-18T14:26:49Z
2023-12-18T12:27:22Z,42.805,6.029,13.3051,4.60123,2470.95,2023-12-18T14:29:52Z
2023-12-18T12:30:25Z,42.805,6.029,13.3059,4.60133,2470.95,2023-12-18T14:32:56Z
2023-12-18T12:33:29Z,42.805,6.029,13.3056,4.60146,2470.973,2023-12-18T14:35:59Z
2023-12-18T12:36:32Z,42.805,6.029,13.3054,4.60137,2470.997,2023-12-18T14:39:02Z
2023-12-18T12:39:35Z,42.805,6.029,13.3052,4.60136,2470.973,2023-12-18T14:42:05Z
2023-12-18T12:42:38Z,42.805,6.029,13.3054,4.60135,2470.973,2023-12-18T14:45:08Z
2023-12-18T12:45:41Z,42.805,6.029,13.3062,4.60128,2470.973,2023-12-18T14:48:11Z
2023-12-18T12:48:44Z,42.805,6.029,13.3063,4.60138,2470.959,2023-12-18T14:51:14Z
2023-12-18T12:51:47Z,42.805,6.029,13.3058,4.60130,2470.973,2023-12-18T14:54:17Z
2023-12-18T12:54:50Z,42.805,6.029,13.3058,4.60136,2470.964,2023-12-18T14:57:20Z
2023-12-18T12:57:53Z,42.805,6.029,13.3067,4.60125,2470.987,2023-12-18T15:00:23Z
2023-12-18T13:00:56Z,42.805,6.029,13.3054,4.60132,2470.973,2023-12-18T15:03:26Z
2023-12-18T13:03:59Z,42.805,6.029,13.3053,4.60130,2470.95,2023-12-18T15:06:30Z
2023-12-18T13:07:03Z,42.805,6.029,13.3051,4.60137,2470.95,2023-12-18T15:09:33Z
2023-12-18T13:10:06Z,42.805,6.029,13.3050,4.60130,2470.95,2023-12-18T15:12:36Z
2023-12-18T13:13:09Z,42.805,6.029,13.3064,4.60127,2471.01,2023-12-18T15:15:39Z
2023-12-18T13:16:12Z,42.805,6.029,13.3056,4.60124,2470.973,2023-12-18T15:18:42Z
2023-12-18T13:19:15Z,42.805,6.029,13.3045,4.60137,2470.973,2023-12-18T15:21:45Z
2023-12-18T13:22:18Z,42.805,6.029,13.3045,4.60137,2470.964,2023-12-18T15:24:48Z
2023-12-18T13:25:21Z,42.805,6.029,13.3053,4.60135,2470.973,2023-12-18T15:27:51Z
2023-12-18T13:28:24Z,42.805,6.029,13.3060,4.60138,2470.95,2023-12-18T15:30:54Z
2023-12-18T13:31:26Z,42.805,6.029,13.3054,4.60131,2470.964,2023-12-18T15:33:56Z
2023-12-18T13:34:29Z,42.805,6.029,13.3063,4.60133,2470.964,2023-12-18T15:36:59Z
2023-12-18T13:37:32Z,42.805,6.029,13.3069,4.60133,2470.927,2023-12-18T15:40:02Z
2023-12-18T13:40:35Z,42.805,6.029,13.3057,4.60142,2470.987,2023-12-18T15:43:05Z
2023-12-18T13:43:38Z,42.805,6.029,13.3062,4.60134,2470.95,2023-12-18T15:46:08Z
2023-12-18T13:46:41Z,42.805,6.029,13.3065,4.60136,2470.927,2023-12-18T15:49:11Z
2023-12-18T13:49:44Z,42.805,6.029,13.3057,4.60137,2470.94,2023-12-18T15:52:14Z
2023-12-18T13:52:47Z,42.805,6.029,13.3060,4.60152,2470.95,2023-12-18T15:55:18Z
2023-12-18T13:55:51Z,42.805,6.029,13.3065,4.60132,2470.95,2023-12-18T15:58:21Z
2023-12-18T13:58:54Z,42.805,6.029,13.3074,4.60147,2470.927,2023-12-18T16:01:24Z
2023-12-18T14:01:57Z,42.805,6.029,13.3051,4.60133,2470.927,2023-12-18T16:04:27Z
2023-12-18T14:05:00Z,42.805,6.029,13.3086,4.60133,2470.904,2023-12-18T16:07:30Z
2023-12-18T14:08:03Z,42.805,6.029,13.3061,4.60137,2470.95,2023-12-18T16:10:33Z
2023-12-18T14:11:06Z,42.805,6.029,13.3061,4.60140,2470.904,2023-12-18T16:13:36Z
2023-12-18T14:14:09Z,42.805,6.029,13.3057,4.60134,2470.94,2023-12-18T16:16:39Z
2023-12-18T14:17:12Z,42.805,6.029,13.3069,4.60135,2470.904,2023-12-18T16:19:42Z
2023-12-18T14:20:15Z,42.805,6.029,13.3058,4.60134,2470.904,2023-12-18T16:22:45Z
2023-12-18T14:23:18Z,42.805,6.029,13.3058,4.60129,2470.917,2023-12-18T16:25:48Z
2023-12-18T14:26:21Z,42.805,6.029,13.3061,4.60141,2470.94,2023-12-18T16:28:52Z
2023-12-18T14:29:25Z,42.805,6.029,13.3058,4.60147,2470.927,2023-12-18T16:31:55Z
2023-12-18T14:32:28Z,42.805,6.029,13.3067,4.60135,2470.94,2023-12-18T16:34:58Z
2023-12-18T14:35:31Z,42.805,6.029,13.3067,4.60152,2470.904,2023-12-18T16:38:01Z
2023-12-18T14:38:34Z,42.805,6.029,13.3080,4.60139,2470.917,2023-12-18T16:41:04Z
2023-12-18T14:41:37Z,42.805,6.029,13.3069,4.60129,2470.927,2023-12-18T16:44:07Z
2023-12-18T14:44:40Z,42.805,6.029,13.3060,4.60129,2470.904,2023-12-18T16:47:10Z
2023-12-18T14:47:43Z,42.805,6.029,13.3069,4.60133,2470.927,2023-12-18T16:50:13Z
2023-12-18T14:50:46Z,42.805,6.029,13.3064,4.60152,2470.917,2023-12-18T16:53:16Z
2023-12-18T14:53:49Z,42.805,6.029,13.3062,4.60151,2470.88,2023-12-18T16:56:19Z
2023-12-18T14:56:52Z,42.805,6.029,13.3070,4.60140,2470.88,2023-12-18T16:59:22Z
2023-12-18T14:59:55Z,42.805,6.029,13.3054,4.60144,2470.857,2023-12-18T17:02:25Z
2023-12-18T15:02:58Z,42.805,6.029,13.3073,4.60137,2470.894,2023-12-18T17:05:29Z